Location: �perlecques
(50.8057°N, 2.1521°E)
Time: 14:51:36
(UTC+00:00)

YUBILEINY - Pass Details

Date: 09 April 2023
Orbit: 1478 x 1508 km, 82.5° (Epoch: 01 June)

Event Time Altitude Azimuth Distance (km) Brightness Sun altitude
Rises 00:17:12 0° 343° (NNW) 4,653 ? -31.6°
Reaches altitude 10° 00:21:16 10° 326° (NW) 3,672 ? -31.5°
Maximum altitude 00:26:32 18° 289° (WNW) 3,094 ? -31.3°
Enters shadow 00:30:01 14° 262° (W) 3,356 ? -31.2°
